• In Czech Republic
  • List of Countries
  • For 7 days
  • Water Temperature
  • Satellite Maps
  • Weather Map
  • Weather Widgets
  • user-avatar
    Login

    Hourly Weather Bamenda

    Today, 24 February, Saturday

    Time Temperature Precipitation Wind Pressure Humidity
    00:00 +21°C° 0.7 mm 1 mps 640 mmHg 77%
    01:00 +21°C° 0 mm 1 mps 640 mmHg 73%
    02:00 +21°C° 0 mm 1 mps 640 mmHg 73%
    03:00 +21°C° 0 mm 1 mps 640 mmHg 73%
    04:00 +21°C° 0 mm 1 mps 640 mmHg 73%
    05:00 +21°C° 0.1 mm 1 mps 640 mmHg 74%
    06:00 +21°C° 0.1 mm 1 mps 640 mmHg 74%
    07:00 +21°C° 0 mm 1 mps 641 mmHg 75%
    08:00 +23°C° 0 mm 1 mps 641 mmHg 67%
    09:00 +25°C° 0 mm 1 mps 642 mmHg 59%
    10:00 +27°C° 0 mm 1 mps 643 mmHg 51%
    11:00 +28°C° 0 mm 2 mps 643 mmHg 46%
    12:00 +30°C° 0 mm 2 mps 643 mmHg 41%
    13:00 +31°C° 0 mm 2 mps 643 mmHg 36%
    14:00 +30°C° 0 mm 2 mps 642 mmHg 38%
    15:00 +29°C° 0 mm 2 mps 641 mmHg 41%
    16:00 +28°C° 0 mm 2 mps 640 mmHg 43%
    17:00 +27°C° 0.9 mm 1 mps 640 mmHg 50%
    18:00 +26°C° 0.9 mm 1 mps 640 mmHg 57%
    19:00 +24°C° 0.9 mm 1 mps 640 mmHg 63%
    20:00 +24°C° 0.9 mm 1 mps 640 mmHg 66%
    21:00 +23°C° 0.9 mm 1 mps 640 mmHg 68%
    22:00 +23°C° 0.9 mm 1 mps 641 mmHg 71%
    23:00 +22°C° 0.3 mm 1 mps 641 mmHg 71%

    Tomorrow, 25 February, Sunday

    Time Temperature Precipitation Wind Pressure Humidity
    00:00 +22°C° 0.3 mm 1 mps 641 mmHg 72%
    01:00 +22°C° 0.3 mm 1 mps 640 mmHg 72%
    02:00 +21°C° 0 mm 1 mps 640 mmHg 74%
    03:00 +21°C° 0 mm 1 mps 640 mmHg 75%
    04:00 +21°C° 0 mm 1 mps 640 mmHg 76%
    05:00 +21°C° 0 mm 1 mps 640 mmHg 78%
    06:00 +20°C° 0 mm 1 mps 640 mmHg 79%
    07:00 +20°C° 0 mm 1 mps 641 mmHg 80%
    08:00 +22°C° 0 mm 1 mps 642 mmHg 71%
    09:00 +25°C° 0 mm 1 mps 643 mmHg 62%
    10:00 +27°C° 0 mm 2 mps 644 mmHg 53%
    11:00 +28°C° 0 mm 2 mps 643 mmHg 47%
    12:00 +30°C° 0 mm 2 mps 643 mmHg 42%
    13:00 +31°C° 0 mm 2 mps 643 mmHg 37%
    14:00 +30°C° 0.1 mm 2 mps 642 mmHg 40%
    15:00 +29°C° 0.1 mm 2 mps 641 mmHg 42%
    16:00 +28°C° 0.1 mm 2 mps 640 mmHg 45%
    17:00 +27°C° 0.5 mm 2 mps 640 mmHg 50%
    18:00 +26°C° 0.5 mm 2 mps 640 mmHg 56%
    19:00 +25°C° 0.5 mm 1 mps 640 mmHg 61%
    20:00 +24°C° 0.2 mm 1 mps 640 mmHg 64%
    21:00 +24°C° 0.2 mm 1 mps 641 mmHg 66%
    22:00 +23°C° 0.2 mm 1 mps 641 mmHg 68%
    23:00 +23°C° 0 mm 1 mps 641 mmHg 70%

    Day after tomorrow, 26 February, Monday

    Time Temperature Precipitation Wind Pressure Humidity
    00:00 +22°C° 0 mm 1 mps 641 mmHg 72%
    01:00 +22°C° 0 mm 1 mps 640 mmHg 73%
    02:00 +22°C° 0.1 mm 1 mps 640 mmHg 75%
    03:00 +21°C° 0.1 mm 1 mps 640 mmHg 77%
    04:00 +21°C° 0.1 mm 1 mps 639 mmHg 79%
    05:00 +21°C° 0.1 mm 1 mps 640 mmHg 81%
    06:00 +20°C° 0.1 mm 1 mps 640 mmHg 83%
    07:00 +18°C° 0.1 mm 0 mps 640 mmHg 84%
    08:00 +23°C° 0 mm 1 mps 642 mmHg 73%
    09:00 +25°C° 0 mm 1 mps 643 mmHg 61%
    10:00 +28°C° 0 mm 1 mps 644 mmHg 50%
    11:00 +28°C° 0.4 mm 1 mps 643 mmHg 48%
    12:00 +29°C° 0.4 mm 2 mps 643 mmHg 46%
    13:00 +29°C° 0.4 mm 2 mps 642 mmHg 44%
    14:00 +29°C° 0.8 mm 2 mps 642 mmHg 47%
    15:00 +28°C° 0.8 mm 2 mps 641 mmHg 50%
    16:00 +27°C° 0.8 mm 2 mps 640 mmHg 53%
    17:00 +25°C° 1.6 mm 2 mps 640 mmHg 60%
    18:00 +24°C° 1.6 mm 1 mps 640 mmHg 67%
    19:00 +23°C° 1.6 mm 1 mps 640 mmHg 74%
    20:00 +22°C° 0.7 mm 1 mps 641 mmHg 75%
    21:00 +22°C° 0.7 mm 1 mps 641 mmHg 76%
    22:00 +22°C° 0.7 mm 1 mps 642 mmHg 77%
    23:00 +21°C° 0.1 mm 1 mps 641 mmHg 78%

    27 February, Tuesday

    Time Temperature Precipitation Wind Pressure Humidity
    00:00 +21°C° 0.1 mm 1 mps 641 mmHg 80%
    01:00 +20°C° 0.1 mm 1 mps 641 mmHg 81%
    02:00 +20°C° 0 mm 1 mps 640 mmHg 83%
    03:00 +20°C° 0 mm 1 mps 640 mmHg 84%
    04:00 +19°C° 0 mm 1 mps 640 mmHg 86%
    05:00 +19°C° 0 mm 1 mps 640 mmHg 85%
    06:00 +20°C° 0 mm 1 mps 641 mmHg 84%
    07:00 +20°C° 0 mm 1 mps 641 mmHg 82%
    08:00 +22°C° 0 mm 1 mps 642 mmHg 72%
    09:00 +23°C° 0 mm 0 mps 643 mmHg 62%
    10:00 +25°C° 0 mm 0 mps 645 mmHg 52%
    11:00 +28°C° 0.1 mm 1 mps 644 mmHg 47%
    12:00 +29°C° 0.1 mm 1 mps 644 mmHg 42%
    13:00 +30°C° 0.1 mm 2 mps 643 mmHg 38%
    14:00 +29°C° 0 mm 2 mps 642 mmHg 40%
    15:00 +29°C° 0 mm 2 mps 641 mmHg 43%
    16:00 +28°C° 0 mm 2 mps 640 mmHg 45%
    17:00 +26°C° 0.4 mm 2 mps 641 mmHg 51%
    18:00 +25°C° 0.4 mm 2 mps 641 mmHg 57%
    19:00 +24°C° 0.4 mm 1 mps 641 mmHg 64%
    20:00 +23°C° 0.5 mm 1 mps 641 mmHg 67%
    21:00 +23°C° 0.5 mm 1 mps 642 mmHg 71%
    22:00 +22°C° 0.5 mm 1 mps 642 mmHg 75%
    23:00 +22°C° 0.1 mm 1 mps 642 mmHg 76%

    28 February, Wednesday

    Time Temperature Precipitation Wind Pressure Humidity
    00:00 +21°C° 0.1 mm 1 mps 641 mmHg 77%
    01:00 +21°C° 0.1 mm 1 mps 641 mmHg 79%
    02:00 +21°C° 0 mm 1 mps 641 mmHg 79%
    03:00 +20°C° 0 mm 1 mps 640 mmHg 80%
    04:00 +18°C° 0 mm 0 mps 640 mmHg 81%
    05:00 +18°C° 0 mm 0 mps 641 mmHg 81%
    06:00 +18°C° 0 mm 0 mps 641 mmHg 81%
    07:00 +18°C° 0 mm 0 mps 641 mmHg 81%
    08:00 +20°C° 0 mm 0 mps 642 mmHg 73%
    09:00 +24°C° 0 mm 1 mps 643 mmHg 66%
    10:00 +26°C° 0 mm 1 mps 644 mmHg 59%
    11:00 +27°C° 0 mm 1 mps 644 mmHg 53%
    12:00 +28°C° 0 mm 2 mps 643 mmHg 48%
    13:00 +29°C° 0 mm 2 mps 643 mmHg 43%
    14:00 +29°C° 0.2 mm 2 mps 642 mmHg 45%
    15:00 +28°C° 0.2 mm 2 mps 642 mmHg 47%
    16:00 +28°C° 0.2 mm 2 mps 641 mmHg 48%
    17:00 +26°C° 1.5 mm 2 mps 641 mmHg 56%
    18:00 +24°C° 1.5 mm 2 mps 641 mmHg 64%
    19:00 +23°C° 1.5 mm 1 mps 641 mmHg 71%
    20:00 +23°C° 0.6 mm 1 mps 641 mmHg 73%
    21:00 +22°C° 0.6 mm 1 mps 641 mmHg 74%
    22:00 +22°C° 0.6 mm 1 mps 642 mmHg 76%
    23:00 +22°C° 0.1 mm 1 mps 641 mmHg 75%

    1 March, Thursday

    Time Temperature Precipitation Wind Pressure Humidity
    00:00 +22°C° 0.1 mm 1 mps 641 mmHg 74%
    01:00 +22°C° 0.1 mm 1 mps 641 mmHg 73%
    02:00 +21°C° 0.1 mm 1 mps 640 mmHg 76%
    03:00 +20°C° 0.1 mm 1 mps 640 mmHg 78%
    04:00 +20°C° 0.1 mm 1 mps 640 mmHg 81%
    05:00 +20°C° 0 mm 1 mps 640 mmHg 82%
    06:00 +20°C° 0 mm 1 mps 641 mmHg 83%
    07:00 +20°C° 0 mm 1 mps 641 mmHg 85%
    08:00 +22°C° 0 mm 1 mps 642 mmHg 74%
    09:00 +24°C° 0 mm 1 mps 643 mmHg 63%
    10:00 +27°C° 0 mm 1 mps 644 mmHg 52%
    11:00 +28°C° 0 mm 2 mps 644 mmHg 48%
    12:00 +29°C° 0 mm 2 mps 644 mmHg 44%
    13:00 +30°C° 0 mm 2 mps 643 mmHg 40%
    14:00 +29°C° 0.1 mm 2 mps 642 mmHg 42%
    15:00 +29°C° 0.1 mm 2 mps 642 mmHg 44%
    16:00 +28°C° 0.1 mm 2 mps 641 mmHg 46%
    17:00 +26°C° 0.2 mm 2 mps 641 mmHg 52%
    18:00 +25°C° 0.2 mm 2 mps 641 mmHg 59%
    19:00 +24°C° 0.2 mm 1 mps 641 mmHg 65%
    20:00 +23°C° 0.2 mm 1 mps 641 mmHg 69%
    21:00 +22°C° 0.2 mm 1 mps 641 mmHg 73%
    22:00 +22°C° 0.2 mm 1 mps 641 mmHg 77%
    23:00 +21°C° 0 mm 1 mps 641 mmHg 79%
    Show more